TimePDT,TemperatureF,Dew PointF,Humidity,Sea Level PressureIn,VisibilityMPH,Wind Direction,Wind SpeedMPH,Gust SpeedMPH,PrecipitationIn,Events,Conditions,WindDirDegrees,DateUTC
12:53 AM,64.9,48.0,54,29.83,10.0,Calm,Calm,-,N/A,,Clear,0,2013-05-06 07:53:00
1:53 AM,64.0,46.9,54,29.82,10.0,Calm,Calm,-,N/A,,Clear,0,2013-05-06 08:53:00
2:53 AM,60.1,46.0,60,29.82,10.0,Calm,Calm,-,N/A,,Clear,0,2013-05-06 09:53:00
3:53 AM,57.9,46.9,67,29.83,10.0,Calm,Calm,-,N/A,,Clear,0,2013-05-06 10:53:00
4:53 AM,55.9,45.0,67,29.83,10.0,Calm,Calm,-,N/A,,Clear,0,2013-05-06 11:53:00
5:53 AM,55.9,46.0,69,29.84,10.0,Calm,Calm,-,N/A,,Clear,0,2013-05-06 12:53:00
6:53 AM,57.0,46.9,69,29.85,10.0,Calm,Calm,-,N/A,,Clear,0,2013-05-06 13:53:00
7:53 AM,61.0,48.9,64,29.86,10.0,Calm,Calm,-,N/A,,Clear,0,2013-05-06 14:53:00
8:53 AM,64.9,48.0,54,29.86,10.0,Calm,Calm,-,N/A,,Clear,0,2013-05-06 15:53:00
9:53 AM,70.0,46.0,42,29.86,10.0,Calm,Calm,-,N/A,,Clear,0,2013-05-06 16:53:00
10:53 AM,73.0,44.1,35,29.85,10.0,Calm,Calm,-,N/A,,Clear,0,2013-05-06 17:53:00
11:53 AM,75.0,45.0,34,29.83,10.0,Variable,3.5,-,N/A,,Clear,0,2013-05-06 18:53:00
12:53 PM,77.0,46.0,33,29.82,10.0,Variable,4.6,-,N/A,,Clear,0,2013-05-06 19:53:00
1:53 PM,80.1,44.1,28,29.81,10.0,Variable,4.6,-,N/A,,Clear,0,2013-05-06 20:53:00
2:53 PM,82.9,42.1,24,29.80,10.0,WNW,6.9,-,N/A,,Clear,300,2013-05-06 21:53:00
3:53 PM,84.0,44.1,25,29.78,10.0,NW,4.6,-,N/A,,Clear,310,2013-05-06 22:53:00
4:53 PM,86.0,43.0,22,29.76,10.0,Variable,5.8,-,N/A,,Clear,0,2013-05-06 23:53:00
5:53 PM,84.9,41.0,21,29.75,10.0,NW,9.2,-,N/A,,Clear,320,2013-05-07 00:53:00
6:53 PM,82.0,39.9,22,29.75,10.0,NNW,8.1,-,N/A,,Clear,330,2013-05-07 01:53:00
7:53 PM,78.1,42.1,28,29.76,10.0,Variable,3.5,-,N/A,,Clear,0,2013-05-07 02:53:00
8:53 PM,75.0,43.0,32,29.78,10.0,Calm,Calm,-,N/A,,Clear,0,2013-05-07 03:53:00
9:53 PM,68.0,46.9,47,29.80,10.0,Calm,Calm,-,N/A,,Clear,0,2013-05-07 04:53:00
10:53 PM,66.9,48.0,51,29.81,10.0,Calm,Calm,-,N/A,,Clear,0,2013-05-07 05:53:00
11:53 PM,64.9,46.9,52,29.83,10.0,Calm,Calm,-,N/A,,Clear,0,2013-05-07 06:53:00